This is the latest recevied weather packets stored in our database for station/object SP1BMW-13. If no packets are shown the sender has not sent any weather packets the latest 10 day(s).
| Time | Temp. | Humidity | Pressure | Rain* | Wind** | Luminosity | Snow |
|---|---|---|---|---|---|---|---|
| 1787989280 | 21.11° C | 65% | 1009.5 hPa | 0 mm | 1.34 m/s, 180° | 242 W/m² | - |
| 1787989220 | 21.11° C | 65% | 1009.5 hPa | 0 mm | 1.34 m/s, 162° | 207 W/m² | - |
| 1787989161 | 21.11° C | 66% | 1009.6 hPa | 0 mm | 1.79 m/s, 258° | 214 W/m² | - |
| 1787989100 | 21.11° C | 67% | 1009.5 hPa | 0 mm | 0.45 m/s, 271° | 232 W/m² | - |
| 1787989041 | 20.56° C | 66% | 1009.5 hPa | 0 mm | 0.89 m/s, 320° | 314 W/m² | - |
| 1787988980 | 20.56° C | 67% | 1009.3 hPa | 0 mm | 2.24 m/s, 312° | 290 W/m² | - |
| 1787988920 | 20.56° C | 67% | 1009.4 hPa | 0 mm | 0.45 m/s, 137° | 245 W/m² | - |
| 1787988860 | 20.56° C | 66% | 1009.3 hPa | 0 mm | 1.34 m/s, 172° | 277 W/m² | - |
| 1787988801 | 20.56° C | 67% | 1009.3 hPa | 0 mm | 1.34 m/s, 253° | 292 W/m² | - |
| 1787988740 | 20.56° C | 68% | 1009.4 hPa | 0 mm | 0.45 m/s, 242° | 309 W/m² | - |
| 1787988680 | 20.56° C | 68% | 1009.3 hPa | 0 mm | 1.34 m/s, 225° | 308 W/m² | - |
| 1787988620 | 20.56° C | 70% | 1009.6 hPa | 0 mm | 0.89 m/s, 231° | 308 W/m² | - |
| 1787988561 | 20.56° C | 69% | 1009.5 hPa | 0 mm | 0.45 m/s, 197° | 296 W/m² | - |
| 1787988500 | 20.56° C | 69% | 1009.4 hPa | 0 mm | 0.89 m/s, 296° | 280 W/m² | - |
| 1787988440 | 20.56° C | 70% | 1009.6 hPa | 0 mm | 0.45 m/s, 227° | 130 W/m² | - |
| 1787988381 | 20.56° C | 69% | 1009.5 hPa | 0 mm | 0.89 m/s, 249° | 130 W/m² | - |
| 1787988321 | 20.56° C | 69% | 1009.5 hPa | 0 mm | 0.45 m/s, 296° | 116 W/m² | - |
| 1787988261 | 20.56° C | 68% | 1009.4 hPa | 0 mm | 0 m/s | 109 W/m² | - |
| 1787988201 | 20.56° C | 68% | 1009.3 hPa | 0 mm | 0.45 m/s, 242° | 124 W/m² | - |
| 1787988140 | 20.56° C | 67% | 1009.6 hPa | 0 mm | 1.79 m/s, 307° | 105 W/m² | - |
| 1787988081 | 20.56° C | 68% | 1009.5 hPa | 0 mm | 1.79 m/s, 272° | 233 W/m² | - |
| 1787988020 | 20.56° C | 69% | 1009.3 hPa | 0 mm | 0.89 m/s, 252° | 278 W/m² | - |
| 1787987960 | 20.56° C | 69% | 1009.3 hPa | 0 mm | 0.89 m/s, 305° | 191 W/m² | - |
| 1787987900 | 20.56° C | 69% | 1009.4 hPa | 0 mm | 2.68 m/s, 214° | 304 W/m² | - |
| 1787987840 | 20.56° C | 68% | 1009.4 hPa | 0 mm | 0.89 m/s, 227° | 262 W/m² | - |
* Rain latest hour (hover to see other rain measurements)
** Current wind speed in m/s (hover to see current wind gust speed)